Regional Weather Roundup
Issued by NWS

Home | Current Version | Previous Version | Graphics & Text | Print | Product List | Glossary On
Versions: 1 2 3 4 5 6 7 8 9 10 11 12 13 14 15 16 17 18 19 20 21 22 23 24 25 26 27 28 29 30 31 32 33 34 35 36 37 38 39 40 41 42 43 44 45 46 47 48 49 50
000
ASUS43 KBIS 282310
RWRND

NORTH DAKOTA REGIONAL WEATHER ROUNDUP
NATIONAL WEATHER SERVICE BISMARCK ND
600 PM CDT WED SEP 28 2016

NOTE: "FAIR" INDICATES FEW OR NO CLOUDS BELOW 12,000 FEET WITH NO
SIGNIFICANT WEATHER AND/OR OBSTRUCTIONS TO VISIBILITY.


NDZ001>003-009>011-017-290000-
NORTHWEST NORTH DAKOTA

CITY           SKY/WX    TMP DP  RH WIND       PRES   REMARKS
WILLISTON      SUNNY     76  51  41 SE8       30.24R
MINOT          SUNNY     68  37  32 E9        30.30R
MINOT AFB      SUNNY     68  38  32 E12       30.29R
$$

NDZ018>021-031>035-040>046-290000-
SOUTHWEST NORTH DAKOTA

CITY           SKY/WX    TMP DP  RH WIND       PRES   REMARKS
BISMARCK       SUNNY     67  44  43 E7        30.30R
DICKINSON      SUNNY     71  44  37 SE14      30.26R
GARRISON         N/A     69  32  25 SE8       30.30R
HETTINGER ARPT SUNNY     75  44  33 E14       30.28R
$$

NDZ004>008-012>016-024-026-027-054-290000-
NORTHEAST NORTH DAKOTA

CITY           SKY/WX    TMP DP  RH WIND       PRES   REMARKS
GRAND FORKS    MOSUNNY   62  46  55 NE6       30.35R
GRND FRKS AFB  MOSUNNY   59  46  62 E5        30.36R
DEVILS LAKE    MOSUNNY   61  46  59 CALM      30.35S HAZE
$$

NDZ022-023-025-028>030-036>039-047>053-290000-
SOUTHEAST NORTH DAKOTA

CITY           SKY/WX    TMP DP  RH WIND       PRES   REMARKS
FARGO          PTSUNNY   65  46  50 NE8       30.33R
JAMESTOWN      SUNNY     62  46  55 E6        30.33R HAZE
$$





USA.gov is the U.S. government's official web portal to all federal, state and local government web resources and services.